[[[{"header":{"parameterUnit":"kt","parameterCategory":2,"dx":1,"dy":1,"la1":30.253999710083008,"la2":30.299108505249023,"lo1":-89.0895004272461,"lo2":-89.04439544677734,"nx":28,"ny":28,"refTime":"2022-09-27T15:00:00:Z","depth":0,"parameterNumber":1,"parameterNumberName":"U-component_of_WINDS"},"data":[-5.5315,-5.55,-5.5472,-5.5669,-5.5676,-5.5806,-5.5844,-5.5888,-5.5916,-5.6066,-5.6147,-5.6136,-5.6152,-5.6241,-5.6326,-5.6319,-5.6361,-5.6445,-5.6424,-5.6066,-5.6015,-5.5966,-5.5923,-5.6453,-5.6454,-5.6801,-5.6805,-5.6807,-5.5052,-5.5062,-5.5158,-5.5232,-5.5314,-5.5213,-5.5263,-5.5339,-5.5457,-5.5492,-5.557,-5.57,-5.5798,-5.5785,-5.5874,-5.5959,-5.5919,-5.5986,-5.5983,-5.5988,-5.5602,-5.5556,-5.6017,-5.6017,-5.6017,-5.6017,-5.6017,-5.6017,-5.4568,-5.468,-5.4708,-5.4812,-5.4841,-5.489,-5.4991,-5.4976,-5.5069,-5.516,-5.5106,-5.5239,-5.5269,-5.5363,-5.5387,-5.5489,-5.541,-5.5475,-5.5493,-5.5513,-5.5539,-5.5049,-5.5502,-5.55,-5.5499,-5.5498,-5.5497,0,-5.4206,-5.4175,-5.4265,-5.4348,-5.4421,-5.4482,-5.4532,-5.4594,-5.4517,-5.4597,-5.471,-5.477,-5.4889,-5.4992,-5.5069,-5.5081,-5.4989,-5.4974,-5.502,-5.5054,-5.5072,-5.507,-5.4448,-5.4963,-5.4959,-5.4955,-5.4953,-5.4951,-5.3721,-5.3854,-5.3869,-5.3936,-5.3957,-5.4066,-5.4126,-5.4047,-5.4114,-5.4164,-5.4266,-5.4367,-5.4446,-5.4631,-5.4612,-5.4701,-5.4659,-5.4859,-5.4672,-5.4695,-5.4669,-5.4665,-5.4679,-5.4901,-5.4907,-5.4912,-5.4917,0,-5.3452,-5.3404,-5.3601,-5.3603,-5.3607,-5.375,-5.3751,-5.3859,-5.3831,-5.3976,-5.4005,-5.3965,-5.4077,-5.4025,-5.4142,-5.4112,-5.4348,-5.43,-5.4337,-5.4328,-5.4506,-5.4493,-5.5085,-5.516,-5.4602,-5.4608,-5.4612,0,-5.3023,-5.3199,-5.3119,-5.3236,-5.3429,-5.3347,-5.354,-5.3536,-5.3561,-5.3674,-5.3558,-5.3667,-5.3583,-5.3684,-5.364,-5.3822,-5.3842,-5.3832,-5.382,-5.3848,-5.385,-5.3888,-5.3865,-5.3779,-5.3776,-5.3774,-5.3771,0,-5.2611,-5.2774,-5.2961,-5.2991,-5.3013,-5.3102,-5.3115,-5.3142,-5.3201,-5.3268,-5.3306,-5.339,-5.3438,-5.3504,-5.3448,-5.3324,-5.3668,-5.3485,-5.3658,-5.3661,-5.3744,-5.3741,-5.4271,-5.3768,-5.3767,-5.3766,-5.3765,0,-5.226,-5.2331,-5.2608,-5.2623,-5.267,-5.2793,-5.2871,-5.2964,-5.3001,-5.2981,-5.3033,-5.2953,-5.3105,-5.2927,-5.3136,-5.2991,-5.3044,-5.3046,-5.3058,-5.3075,-5.2881,-5.3195,-5.3699,-5.3753,-5.3081,-5.3076,-5.307,0,-5.1805,-5.2072,-5.2005,-5.227,-5.2388,-5.2252,-5.2386,-5.2423,-5.2408,-5.2504,-5.2486,-5.2598,-5.2454,-5.2482,-5.2591,-5.258,-5.2768,-5.2551,-5.2697,-5.2703,-5.2698,-5.3159,-5.3251,-5.3592,-5.2997,-5.3004,-5.301,0,-5.1447,-5.1472,-5.1525,-5.1556,-5.1592,-5.1689,-5.1842,-5.1934,-5.2003,-5.2055,-5.2185,-5.2336,-5.2236,-5.2284,-5.2228,-5.2345,-5.2638,-5.2222,-5.2222,-5.2303,-5.2953,-5.304,-5.3098,-5.2574,-5.2583,-5.259,-5.2951,0,-5.0937,-5.1064,-5.1201,-5.1276,-5.1341,-5.1504,-5.1451,-5.1527,-5.1466,-5.1447,-5.1634,-5.1651,-5.1747,-5.1796,-5.1739,-5.2021,-5.1968,-5.1859,-5.169,-5.199,-5.2109,-5.2157,-5.1517,-5.1512,-5.1507,-5.1503,0,0,-5.0517,-5.0698,-5.0621,-5.0768,-5.082,-5.0679,-5.0858,-5.0891,-5.0965,-5.1004,-5.0906,-5.1127,-5.1147,-5.138,-5.1469,-5.1506,-5.1554,-5.1452,-5.1846,-5.1885,-5.192,-5.2048,-5.2098,-5.1495,-5.1494,-5.1492,-5.1491,0,-5.0321,-5.0342,-5.0519,-5.055,-5.0594,-5.0565,-5.0608,-5.0627,-5.0624,-5.0805,-5.0689,-5.0794,-5.0973,-5.1011,-5.1053,-5.1419,-5.1329,-5.1451,-5.1668,-5.1802,-5.1847,-5.1886,-5.202,-5.2069,-5.148,-5.148,-5.1481,0,-4.9964,-4.9978,-5.0057,-5.0167,-5.0195,-5.0318,-5.0124,-5.0263,-5.0354,-5.0196,-5.038,-5.0383,-5.0428,-5.0654,-5.0753,-5.0669,-5.1128,-5.0972,-5.0999,-5.1011,-5.1139,-5.1192,-5.124,-5.0615,-5.0612,-5.0609,0,0,-4.9803,-4.992,-4.9912,-5.0121,-5.0146,-5.0107,-5.0167,-5.0114,-5.0157,-5.0175,-5.0179,-5.0225,-5.0327,-5.0397,-5.0491,-5.0746,-5.0751,-5.0868,-5.0908,-5.0942,-5.0973,-5.1109,-5.1162,-5.0599,-5.0598,-5.0598,0,0,-4.9727,-4.9726,-4.9658,-4.9893,-4.9937,-4.9945,-5.0075,-4.9991,-5.0071,-5.0047,-4.9964,-4.9973,-5.0183,-5.0192,-5.0056,-5.0431,-5.0262,-5.0293,-5.0419,-5.047,-5.051,-5.0506,-4.9864,0,0,0,0,0,-4.9502,-4.9725,-4.9663,-4.9695,-4.9835,-4.9978,-4.9996,-4.9933,-4.9814,-4.9919,-4.9908,-4.9806,-5.0101,-4.998,-5.0013,-5.0167,-5.0463,-5.0487,-5.0509,-5.073,-5.0784,-5.0829,0,0,0,0,0,0,-4.9514,-4.9553,-4.9657,-4.9675,-4.9705,-4.997,-4.9756,-4.9745,-4.9802,-4.978,-4.9811,-4.9807,-4.9756,-4.9958,-4.9989,-5.0137,-4.9854,-5.0472,-5.0493,-5.0511,-5.0749,-5.0793,-5.083,0,0,0,0,0,-4.9523,-4.9554,-4.9795,-4.9671,-4.9698,-4.9667,-4.9747,-4.9736,-4.9779,-4.9765,-4.9757,-4.9727,-4.9762,-4.9784,-4.9976,-5.0125,-4.9832,-4.9844,-5.0485,-5.0502,-5.0516,-5.077,0,0,0,0,0,0,-4.953,-4.9545,-4.9799,-4.9804,-4.9582,-4.9651,-4.9659,-4.9729,-4.9759,-4.9754,-4.9675,-4.9658,-4.9769,-4.9784,-4.9802,-5.0124,-4.9814,-4.9826,-4.9834,-5.0498,-5.051,-5.0522,0,0,0,0,0,0,-4.9528,-4.9552,-4.9801,-4.9693,-4.9686,-4.9637,-4.9644,-4.9798,-4.9761,-4.9668,-4.9654,-4.9667,-4.9743,-4.9786,-4.9799,-5.0042,-4.9801,-4.9812,-4.982,-4.9825,-5.0508,-5.0518,0,0,0,0,0,0,-4.9537,-4.9557,-4.9691,-4.9686,-4.9679,-4.9739,-4.9771,-4.9918,-4.9668,-4.9669,-4.9644,-4.9632,-4.9749,-4.976,-4.9798,-5.0037,-5.0041,-4.9801,-4.9809,-4.9814,-4.9818,0,0,0,0,0,0,0,-4.9544,-4.9425,-4.9764,-4.968,-4.9673,-4.9858,-4.9859,-4.9861,-4.9665,-4.9656,-4.9646,-4.9637,-4.9735,-4.9748,-4.976,-5.0032,0,0,-4.98,-4.9805,0,0,0,0,0,0,0,0,-4.9415,-4.9422,-4.9765,-4.9766,-4.9767,-4.9858,-4.9859,-4.986,-4.9664,-4.9656,-4.9648,-4.9641,-4.9739,-4.9749,-4.9759,0,0,0,0,0,0,0,0,0,0,0,0,0,0,0,-4.9765,-4.9766,0,-4.9858,-4.9859,-4.986,-4.9663,-4.9656,-4.965,-4.9644,-4.9741,-4.975,-4.9758,0,0,0,0,0,0,0,0,0,0,0,0,0,0,0,0,0,0,0,0,0,0,0,0,0,0,0,0,0,0,0,0,0,0,0,0,0,0,0,0,0,0,0,0,0,0,0,0,0,0,0,0,0,0,0,0,0,0,0,0,0,0,0,0,0,0,0,0,0]}],[{"header":{"parameterUnit":"kt","parameterCategory":2,"dx":1,"dy":1,"la1":30.253999710083008,"la2":30.299108505249023,"lo1":-89.0895004272461,"lo2":-89.04439544677734,"nx":28,"ny":28,"refTime":"2022-09-27T15:00:00:Z","depth":0,"parameterNumber":2,"parameterNumberName":"V-component_of_WINDS"},"data":[-14.8924,-14.9191,-14.9164,-14.9454,-14.9477,-14.9669,-14.9727,-14.9799,-14.9847,-15.0067,-15.0188,-15.0182,-15.0214,-15.0346,-15.047,-15.0463,-15.0519,-15.0635,-15.0606,-15.0119,-15.005,-14.9983,-14.992,-15.0647,-15.0648,-15.1116,-15.112,-15.1124,-14.8569,-14.8597,-14.8743,-14.8865,-14.8988,-14.886,-14.8944,-14.9054,-14.9227,-14.9288,-14.9404,-14.9593,-14.9737,-14.9728,-14.9859,-14.9977,-14.9922,-15.0015,-15.0006,-15.0013,-14.9491,-14.9425,-15.0058,-15.0058,-15.0057,-15.0057,-15.0057,-15.0057,-14.7916,-14.8077,-14.8135,-14.8292,-14.8345,-14.8425,-14.8571,-14.8562,-14.87,-14.8839,-14.8773,-14.8965,-14.9016,-14.9157,-14.9194,-14.934,-14.923,-14.9321,-14.9344,-14.9368,-14.9401,-14.8732,-14.936,-14.9358,-14.9356,-14.9354,-14.9353,0,-14.7428,-14.7395,-14.7532,-14.7663,-14.7774,-14.787,-14.7952,-14.8041,-14.7951,-14.8069,-14.8235,-14.8324,-14.8498,-14.8647,-14.8761,-14.8781,-14.8655,-14.8637,-14.87,-14.8737,-14.8756,-14.875,-14.7901,-14.8619,-14.8613,-14.8608,-14.8605,-14.8602,-14.6768,-14.6959,-14.7004,-14.7105,-14.7142,-14.7305,-14.7394,-14.73,-14.7399,-14.7482,-14.7625,-14.7774,-14.7889,-14.8154,-14.8134,-14.8263,-14.8202,-14.8481,-14.822,-14.8248,-14.8208,-14.8198,-14.8216,-14.8534,-14.8543,-14.855,-14.8555,0,-14.6399,-14.6351,-14.6636,-14.666,-14.6671,-14.6875,-14.6892,-14.7046,-14.7017,-14.7225,-14.7267,-14.7222,-14.7383,-14.7318,-14.7487,-14.7448,-14.7775,-14.7712,-14.7757,-14.7741,-14.7985,-14.7964,-14.8784,-14.8886,-14.813,-14.8138,-14.8144,0,-14.5816,-14.607,-14.5982,-14.6151,-14.6427,-14.6327,-14.6602,-14.6605,-14.6649,-14.6811,-14.6659,-14.6813,-14.6704,-14.6848,-14.679,-14.7045,-14.7076,-14.7061,-14.7043,-14.7076,-14.7079,-14.7125,-14.7091,-14.6992,-14.6988,-14.6984,-14.6981,0,-14.5245,-14.5494,-14.5766,-14.5815,-14.5864,-14.5993,-14.6018,-14.6065,-14.6153,-14.6254,-14.6309,-14.6433,-14.6502,-14.6598,-14.6523,-14.6349,-14.6833,-14.6578,-14.6817,-14.682,-14.6929,-14.6923,-14.7665,-14.6976,-14.6975,-14.6973,-14.6972,0,-14.4767,-14.4878,-14.528,-14.5317,-14.5385,-14.5564,-14.5682,-14.5819,-14.5879,-14.5855,-14.5933,-14.5823,-14.604,-14.5792,-14.6089,-14.5885,-14.596,-14.5964,-14.598,-14.5996,-14.5721,-14.6151,-14.6863,-14.6935,-14.601,-14.6002,-14.5995,0,-14.4126,-14.4519,-14.4437,-14.482,-14.4992,-14.4811,-14.5006,-14.5064,-14.5049,-14.5188,-14.5166,-14.5326,-14.5128,-14.5168,-14.5324,-14.5308,-14.5574,-14.527,-14.5469,-14.5477,-14.5461,-14.6115,-14.6239,-14.6714,-14.5891,-14.5902,-14.591,0,-14.3624,-14.3684,-14.3759,-14.3809,-14.3874,-14.4016,-14.424,-14.4377,-14.4475,-14.4556,-14.474,-14.4961,-14.482,-14.4889,-14.4811,-14.4977,-14.5391,-14.4802,-14.4802,-14.4912,-14.5833,-14.5949,-14.603,-14.5301,-14.5313,-14.5323,-14.5827,0,-14.2915,-14.3104,-14.3302,-14.342,-14.3519,-14.3755,-14.3689,-14.3801,-14.3718,-14.3695,-14.3963,-14.3991,-14.4128,-14.42,-14.4119,-14.452,-14.4442,-14.429,-14.4044,-14.4474,-14.4638,-14.4705,-14.3805,-14.3797,-14.3791,-14.3786,0,0,-14.2314,-14.2585,-14.2487,-14.2702,-14.278,-14.2589,-14.2846,-14.2898,-14.3009,-14.3066,-14.2928,-14.3246,-14.3275,-14.3607,-14.3735,-14.379,-14.3855,-14.3707,-14.427,-14.4324,-14.4374,-14.4551,-14.4622,-14.3774,-14.3772,-14.3769,-14.3767,0,-14.2042,-14.2083,-14.2341,-14.2392,-14.2464,-14.2428,-14.249,-14.2525,-14.2523,-14.2785,-14.262,-14.2771,-14.3028,-14.308,-14.3141,-14.3666,-14.3532,-14.3712,-14.4018,-14.4207,-14.427,-14.4325,-14.4513,-14.4581,-14.3752,-14.3753,-14.3753,0,-14.1536,-14.1565,-14.1683,-14.1853,-14.1897,-14.2078,-14.1805,-14.2007,-14.2138,-14.1913,-14.2177,-14.2183,-14.2247,-14.257,-14.2711,-14.2589,-14.3242,-14.3023,-14.3061,-14.3076,-14.3255,-14.3331,-14.3398,-14.251,-14.2506,-14.2502,0,0,-14.1309,-14.1485,-14.1485,-14.1789,-14.1829,-14.1779,-14.1867,-14.1794,-14.1858,-14.1885,-14.189,-14.1956,-14.2102,-14.2202,-14.2336,-14.27,-14.2704,-14.2873,-14.2931,-14.298,-14.302,-14.3212,-14.3287,-14.2487,-14.2487,-14.2486,0,0,-14.12,-14.1214,-14.112,-14.1465,-14.1534,-14.1551,-14.1738,-14.1621,-14.1736,-14.1701,-14.1583,-14.1595,-14.1894,-14.1907,-14.1712,-14.2247,-14.2005,-14.205,-14.2228,-14.2301,-14.2359,-14.235,-14.1433,0,0,0,0,0,-14.0888,-14.1212,-14.1127,-14.1175,-14.1387,-14.1599,-14.1625,-14.1537,-14.1368,-14.1518,-14.1503,-14.1354,-14.1777,-14.1602,-14.1649,-14.1868,-14.2291,-14.2326,-14.2359,-14.2674,-14.2751,-14.2816,0,0,0,0,0,0,-14.0906,-14.0966,-14.1117,-14.1151,-14.1197,-14.1586,-14.1281,-14.1265,-14.135,-14.1318,-14.1361,-14.1355,-14.1281,-14.1571,-14.1615,-14.1825,-14.1418,-14.2305,-14.2334,-14.2361,-14.27,-14.2764,-14.2818,0,0,0,0,0,-14.092,-14.0968,-14.1332,-14.1145,-14.1186,-14.1146,-14.1268,-14.1253,-14.1316,-14.1295,-14.1284,-14.1242,-14.129,-14.132,-14.1597,-14.1807,-14.1387,-14.1404,-14.2324,-14.2347,-14.2368,-14.2731,0,0,0,0,0,0,-14.093,-14.0954,-14.1338,-14.1347,-14.1017,-14.1122,-14.1136,-14.1243,-14.1285,-14.1278,-14.1168,-14.1142,-14.13,-14.1322,-14.1346,-14.1807,-14.1362,-14.1379,-14.139,-14.2342,-14.236,-14.2376,0,0,0,0,0,0,-14.0927,-14.0963,-14.1343,-14.1186,-14.1176,-14.1101,-14.1114,-14.1334,-14.1288,-14.1154,-14.1134,-14.1156,-14.1261,-14.1325,-14.1343,-14.169,-14.1342,-14.1359,-14.137,-14.1377,-14.2357,-14.2371,0,0,0,0,0,0,-14.094,-14.0971,-14.1183,-14.1176,-14.1166,-14.1258,-14.1293,-14.1515,-14.1158,-14.1155,-14.1123,-14.1107,-14.1269,-14.1285,-14.1342,-14.1683,-14.1688,-14.1343,-14.1354,-14.1362,-14.1367,0,0,0,0,0,0,0,-14.0951,-14.077,-14.1286,-14.1167,-14.1158,-14.1429,-14.1432,-14.1434,-14.1154,-14.114,-14.1127,-14.1114,-14.1249,-14.1267,-14.1285,-14.1676,0,0,-14.1341,-14.1349,0,0,0,0,0,0,0,0,-14.0755,-14.0767,-14.1287,-14.1289,-14.1291,-14.143,-14.1432,-14.1434,-14.1152,-14.1141,-14.113,-14.1119,-14.1254,-14.1269,-14.1283,0,0,0,0,0,0,0,0,0,0,0,0,0,0,0,-14.1287,-14.1289,0,-14.143,-14.1432,-14.1433,-14.115,-14.1141,-14.1132,-14.1123,-14.1258,-14.127,-14.1282,0,0,0,0,0,0,0,0,0,0,0,0,0,0,0,0,0,0,0,0,0,0,0,0,0,0,0,0,0,0,0,0,0,0,0,0,0,0,0,0,0,0,0,0,0,0,0,0,0,0,0,0,0,0,0,0,0,0,0,0,0,0,0,0,0,0,0,0,0]}]]]